Regional Weather Roundup
Issued by NWS

Home | Current Version | Previous Version | Text Only | Print | Product List | Glossary Off
Versions: 1 2 3 4 5 6 7 8 9 10 11 12 13 14 15 16 17 18 19 20 21 22 23 24 25 26 27 28 29 30 31 32 33 34 35 36 37 38 39 40 41 42 43 44 45 46 47 48 49 50

000
ASUS43 KOAX 270510
RWRNE

WEATHER ROUNDUP FOR NEBRASKA
NATIONAL WEATHER SERVICE OMAHA NE
1100 PM CST WED NOV 26 2014

NOTES: SATELLITE DATA IS BEING USED TO AUGMENT CLOUD COVER ABOVE
       12000 FEET.
       "FAIR" INDICATES FEW OR NO CLOUDS BELOW 12,000 FEET WITH NO
       SIGNIFICANT WEATHER AND/OR OBSTRUCTIONS TO VISIBILITY.

  * THESE STATIONS DO NOT REPORT WEATHER SUCH AS RAIN...SNOW OR FOG.

NEZ001>004-019>022-054>056-270600-
NEBRASKA PANHANDLE

CITY           SKY/WX    TMP DP  RH WIND       PRES   REMARKS
SCOTTSBLUFF    PTCLDY    21  19  92 E8        30.26S WCI  11
ALLIANCE       PTCLDY    19  17  92 S9        30.25F FOG     WCI   8
CHADRON        CLOUDY   N/A N/A N/A S5        30.26S
KIMBALL        PTCLDY    16  15  94 S5        30.23S WCI   9
SIDNEY         PTCLDY    17  14  88 SW10      30.27F WCI   5
$$

NEZ057>060-069>072-079>082-270600-
SOUTHWEST NEBRASKA

CITY           SKY/WX    TMP DP  RH WIND       PRES   REMARKS
NORTH PLATTE   MOCLDY    22  17  81 SE3       30.36R
IMPERIAL       CLOUDY    31  28  89 S7        30.32F WCI  24
LEXINGTON      CLOUDY    23  18  81 E5        30.39R WCI  17
MCCOOK         CLOUDY    31  20  63 SE5       30.36F WCI  26
OGALLALA       CLOUDY    22  21  96 CALM      30.33R
$$

NEZ005>010-023>029-035>040-094-270600-
NORTH CENTRAL NEBRASKA

CITY           SKY/WX    TMP DP  RH WIND       PRES   REMARKS
VALENTINE      CLOUDY    23  18  81 SE6       30.34F WCI  16
AINSWORTH      CLOUDY    21  17  84 SE6       30.35F WCI  13
BROKEN BOW     PTCLDY    17  12  80 CALM      30.37F
O`NEILL        CLOUDY    15  12  86 CALM      30.43R
ORD            MOCLDY    15  12  88 CALM      30.40F
THEDFORD       CLOUDY    27  20  76 S6        30.34F WCI  20
$$

NEZ041-046>049-061>064-073>077-083>087-270600-
SOUTH CENTRAL NEBRASKA

CITY           SKY/WX    TMP DP  RH WIND       PRES   REMARKS
GRAND ISLAND   PTCLDY    19  14  81 W3        30.45R
AURORA         PTCLDY    21  14  75 NW5       30.44S WCI  14
HASTINGS       CLEAR     19  13  77 N7        30.42S WCI  10
HEBRON         CLEAR     21  15  76 NW6       30.45F WCI  14
HOLDREGE       FAIR      19  13  79 NE7       30.40S WCI  10
KEARNEY *      PTCLDY    18  12  79 N8        30.42F WCI   7
YORK           PTCLDY    21  14  73 NW6       30.45R WCI  14
$$

NEZ011>018-030>034-042>045-270600-
NORTHEAST NEBRASKA

CITY           SKY/WX    TMP DP  RH WIND       PRES   REMARKS
NORFOLK        PTCLDY    14   9  80 NW6       30.45R WCI   5
ALBION         PTCLDY    17   9  71 NW7       30.44R WCI   7
BLAIR          CLOUDY    22  17  80 N10       30.41S WCI  11
COLUMBUS *     PTCLDY    16   7  67 W6        30.46S WCI   7
FREMONT        MOCLDY    19  14  81 N8        30.45S WCI   9
TEKAMAH        CLOUDY    19  13  77 NW14      30.46R WCI   6
WAYNE          CLOUDY    15  10  77 N9        30.45R WCI   4
$$

NEZ050>053-065>068-078-088>093-270600-
SOUTHEAST NEBRASKA

CITY           SKY/WX    TMP DP  RH WIND       PRES   REMARKS
LINCOLN        PTCLDY    19  14  81 N7        30.46R WCI  10
OMAHA EPPLEY   CLOUDY    23  17  78 N16       30.45R WCI  10
BEATRICE       CLEAR     17  14  89 NW8       30.44S WCI   7
FALLS CITY     CLOUDY    25  19  78 N13       30.43R WCI  14
NEBRASKA CITY  CLOUDY    24  17  77 N10       30.43R WCI  13
PLATTSMOUTH    CLOUDY    23  18  80 NW12      30.42R WCI  12
$$

NEZ044-045-051>053-067-270600-
OMAHA AREA

CITY           SKY/WX    TMP DP  RH WIND       PRES   REMARKS
OMAHA EPPLEY   CLOUDY    23  17  78 N16       30.45R WCI  10
BLAIR          CLOUDY    22  17  80 N10       30.41S WCI  11
FREMONT        MOCLDY    19  14  81 N8        30.45S WCI   9
MILLARD        CLOUDY    24  18  77 NW5       30.44R WCI  18
OFFUTT AFB     CLOUDY    23  17  78 N10       30.43R WCI  13
PLATTSMOUTH    CLOUDY    23  18  80 NW12      30.42R WCI  12
WAHOO          MOCLDY    19  14  80 N14       30.43S WCI   6
$$



USA.gov is the U.S. government's official web portal to all federal, state and local government web resources and services.